Location: Sperry Observatory
(40.6664°N, 74.3236°W)
Time: 22:54:26
(UTC-04:00)

Amateur Radio Satellites - All Passes

Search period start: 27 May 2017 22:24
Search period end: 28 May 2017 22:24
Location: Sperry Observatory, 40.6664°N, 74.3236°W

Satellite Date Start Highest point End Downlink Frequencies (MHz)
Time Altitude Azimuth
TIGRISAT 27 May 22:31:19 22:35:33 35° 97° (E) 22:39:50 435.000
ISS 27 May 22:42:34 22:44:36 15° 347° (NNW) 22:46:38 437.550
M-CUBED/EXP-1 PRIME 27 May 22:44:52 22:47:00 16° 298° (WNW) 22:49:07 437.505
PRISM 27 May 22:47:27 22:51:31 70° 103° (ESE) 22:55:33 437.425
UNISAT 6 27 May 23:03:10 23:07:48 84° 102° (ESE) 23:12:29 437.425
EO-88 27 May 23:19:24 23:20:02 10° 269° (W) 23:20:40 145.990 - 145.960
FO-29 27 May 23:33:10 23:39:37 67° 287° (WNW) 23:46:52 435.910
ESTCUBE 1 27 May 23:34:45 23:39:17 81° 76° (ENE) 23:43:51 437.505/2401.250
SO-50 27 May 23:35:08 23:39:01 26° 313° (NW) 23:42:52 436.795
Tancredo 1 27 May 23:36:26 23:37:22 11° 3° (N) 23:38:19 437.200
AIST 2D 27 May 23:40:05 23:43:03 24° 96° (E) 23:45:58 435.315
LO-87 27 May 23:55:30 23:58:29 25° 264° (W) 00:01:29 145.935 - 145.965
YUBILEINY 28 May 00:00:35 00:06:47 22° 79° (E) 00:13:01 435.215
NANOSAT C BR1 28 May 00:00:55 00:04:05 20° 94° (E) 00:07:14 145.865
POLYITAN 1 28 May 00:06:25 00:10:01 26° 96° (E) 00:13:36 437.675
TIGRISAT 28 May 00:08:23 00:12:02 24° 293° (WNW) 00:15:43 435.000
SPROUT 28 May 00:09:01 00:13:04 47° 73° (ENE) 00:17:09 437.525
DUCHIFAT 1 28 May 00:10:41 00:14:05 23° 95° (E) 00:17:29 145.980
QB50P2 28 May 00:14:55 00:18:50 35° 97° (E) 00:22:45 145.880/145.840
ISS 28 May 00:20:28 00:22:09 13° 8° (N) 00:23:49 437.550
VELOX 1 28 May 00:24:45 00:29:09 73° 75° (ENE) 00:33:34 145.980
PRISM 28 May 00:25:53 00:26:12 10° 298° (WNW) 00:26:31 437.425
UNISAT 6 28 May 00:42:43 00:43:50 11° 299° (WNW) 00:44:57 437.425
UKube-1 28 May 00:45:58 00:49:41 29° 69° (ENE) 00:53:26 .
EO-79 28 May 00:51:19 00:55:36 85° 103° (ESE) 00:59:52 145.935-145.965
DX 1 28 May 00:55:56 01:00:10 56° 73° (ENE) 01:04:27 434.975-435.025
50 SAT 28 May 00:58:20 01:01:48 85° 258° (WSW) 01:05:16 437.505
Tancredo 1 28 May 01:11:33 01:14:01 21° 23° (NNE) 01:16:27 437.200
AIST 2D 28 May 01:13:29 01:16:06 19° 291° (WNW) 01:18:41 435.315
RS-15 28 May 01:17:44 01:28:34 41° 107° (ESE) 01:39:38 29.354- 29.394
FO-29 28 May 01:21:32 01:23:42 12° 303° (WNW) 01:25:57 435.910
NANOSAT C BR1 28 May 01:36:01 01:39:51 33° 290° (WNW) 01:43:40 145.865
POLYITAN 1 28 May 01:42:07 01:45:43 27° 291° (WNW) 01:49:19 437.675
DUCHIFAT 1 28 May 01:46:04 01:49:43 29° 291° (WNW) 01:53:24 145.980
SPROUT 28 May 01:46:56 01:49:14 14° 269° (W) 01:51:30 437.525
QB50P2 28 May 01:51:15 01:54:23 20° 293° (WNW) 01:57:32 145.880/145.840
YUBILEINY 28 May 01:53:52 02:02:35 75° 279° (W) 02:11:24 435.215
ITUPSAT 1 28 May 01:56:15 01:59:14 17° 63° (ENE) 02:02:13 437.325
ISS 28 May 01:56:25 01:59:26 31° 27° (NNE) 02:02:24 437.550
BUGSAT 1 28 May 01:57:58 02:02:05 69° 286° (WNW) 02:06:15 437.445
Gurwin Techsat 1B 28 May 02:12:23 02:17:05 31° 96° (E) 02:21:47 435.225
UKube-1 28 May 02:22:13 02:25:42 24° 265° (W) 02:29:12 .
Oscar 19 28 May 02:22:54 02:28:03 66° 102° (ESE) 02:33:08 437.125/150
BEESAT 28 May 02:27:17 02:31:31 33° 69° (ENE) 02:35:47 436.000
PCSat 28 May 02:32:32 02:34:47 12° 38° (NE) 02:37:01 145.827
DX 1 28 May 02:34:46 02:36:41 13° 269° (W) 02:38:36 434.975-435.025
Tancredo 1 28 May 02:46:57 02:49:58 55° 220° (SW) 02:52:57 437.200
AO-7 28 May 03:12:11 03:18:05 21° 92° (E) 03:23:56 .
ITAMSAT 1 28 May 03:28:26 03:32:28 22° 94° (E) 03:36:28 435.822/435.867
RS-15 28 May 03:28:30 03:40:32 63° 309° (NW) 03:52:51 29.354- 29.394
ITUPSAT 1 28 May 03:31:55 03:36:35 55° 259° (W) 03:41:19 437.325
ISS 28 May 03:32:56 03:35:54 32° 224° (SW) 03:38:52 437.550
MOZHAYETS 4 28 May 03:33:09 03:37:45 85° 78° (ENE) 03:42:24
AO-85 28 May 03:33:25 03:36:11 17° 112° (ESE) 03:38:53 145.980
Gurwin Techsat 1B 28 May 03:52:17 03:56:58 33° 293° (WNW) 04:01:39 435.225
YUBILEINY 28 May 03:56:28 04:01:03 15° 301° (WNW) 04:05:42 435.215
Oscar 19 28 May 04:03:43 04:06:47 16° 299° (WNW) 04:09:51 437.125/150
BEESAT 28 May 04:05:24 04:09:19 25° 265° (W) 04:13:16 436.000
O/OREOS (USA 219) 28 May 04:12:06 04:16:41 78° 292° (WNW) 04:21:18 437.305
PCSat 28 May 04:13:51 04:19:16 65° 59° (ENE) 04:24:39 145.827
KKS-1 28 May 04:15:44 04:19:45 35° 70° (ENE) 04:23:48 437.445
CUBESAT XI-V 28 May 04:23:18 04:27:50 51° 73° (ENE) 04:32:25 437.345
STARS 28 May 04:42:29 04:46:15 29° 69° (ENE) 04:50:01 437.465
AO-7 28 May 05:03:16 05:11:39 82° 291° (WNW) 05:20:01 .
BEESAT 2 28 May 05:05:47 05:08:36 19° 111° (ESE) 05:11:28 435.950
ITAMSAT 1 28 May 05:07:09 05:12:06 44° 290° (WNW) 05:17:01 435.822/435.867
AO-85 28 May 05:12:21 05:16:17 41° 307° (NW) 05:20:05 145.980
BEESAT 3 28 May 05:20:58 05:24:55 82° 118° (ESE) 05:28:55 437.485
RS-15 28 May 05:46:23 05:56:15 27° 339° (NNW) 06:06:08 29.354- 29.394
KKS-1 28 May 05:53:05 05:56:23 20° 266° (W) 05:59:42 437.445
PCSat 28 May 05:58:41 06:02:05 17° 256° (WSW) 06:05:28 145.827
CUBESAT XI-V 28 May 06:02:34 06:05:29 16° 269° (W) 06:08:25 437.345
XW-2D 28 May 06:17:02 06:19:48 19° 94° (E) 06:22:33 145.860 - 145.880
STARS 28 May 06:19:02 06:22:34 24° 265° (W) 06:26:08 437.465
XW-2B 28 May 06:24:47 06:27:51 22° 95° (E) 06:30:54 145.730 - 145.750
SO-50 28 May 06:25:36 06:29:40 32° 49° (NE) 06:33:44 436.795
STRAND 1 28 May 06:26:03 06:29:48 21° 64° (ENE) 06:33:35 437.568
NUDT-PHONESAT 28 May 06:30:13 06:33:03 20° 94° (E) 06:35:50 437.300
XW-2F 28 May 06:35:56 06:39:19 29° 97° (E) 06:42:40 145.980 - 146.000
DOVE 4 28 May 06:36:47 06:40:57 62° 101° (E) 06:45:13 437.250
XW-2C 28 May 06:38:11 06:41:42 33° 97° (E) 06:45:10 145.795 - 145.815
KAITUO 1B 28 May 06:40:45 06:44:02 27° 96° (E) 06:47:16 145.475/437.950
BEESAT 2 28 May 06:42:22 06:46:05 37° 308° (NW) 06:49:52 435.950
HO-68 28 May 06:53:53 06:57:25 14° 88° (E) 07:00:57 435.675
AO-7 28 May 06:57:45 07:03:11 20° 310° (NW) 07:08:38 .
BEESAT 3 28 May 07:01:18 07:03:02 12° 319° (NW) 07:04:48 437.485
CUTE-I 28 May 07:13:48 07:19:09 67° 102° (ESE) 07:24:27 437.470
LilacSat-2 28 May 07:18:00 07:21:53 71° 283° (WNW) 07:25:43 437.200
XW-2D 28 May 07:50:39 07:54:00 29° 289° (WNW) 07:57:20 145.860 - 145.880
CUTE 1.7 + AOD 2 28 May 07:51:55 07:55:47 33° 97° (E) 07:59:37 437.475
M-CUBED/EXP-1 PRIME 28 May 07:54:42 07:58:33 37° 68° (ENE) 08:02:09 437.505
NO-84 28 May 07:56:19 08:00:30 43° 131° (SE) 08:04:37 435.350 FM
XW-2B 28 May 07:58:48 08:01:58 24° 291° (WNW) 08:05:07 145.730 - 145.750
AAUSAT CUBESAT 2 28 May 07:59:04 08:00:14 11° 90° (E) 08:01:24 437.432
NUDT-PHONESAT 28 May 08:03:43 08:06:55 26° 290° (WNW) 08:10:05 437.300
STRAND 1 28 May 08:03:44 08:08:38 47° 261° (W) 08:13:34 437.568
RS-15 28 May 08:05:13 08:14:39 24° 15° (NNE) 08:23:52 29.354- 29.394
SO-50 28 May 08:06:09 08:10:02 29° 246° (WSW) 08:13:56 436.795
XW-2A 28 May 08:06:21 08:09:37 39° 99° (E) 08:12:53 145.665 - 145.685
XW-2F 28 May 08:10:29 08:13:14 19° 292° (WNW) 08:15:57 145.980 - 146.000
XW-2C 28 May 08:13:03 08:15:37 17° 293° (WNW) 08:18:10 145.795 - 145.815
KAITUO 1B 28 May 08:15:03 08:17:51 20° 292° (WNW) 08:20:39 145.475/437.950
DOVE 4 28 May 08:16:47 08:18:10 11° 296° (WNW) 08:19:34 437.250
ZACube-1 28 May 08:28:37 08:31:16 15° 91° (E) 08:33:55 437.345
SEEDS 28 May 08:37:34 08:41:46 72° 101° (E) 08:45:57 437.485
HO-68 28 May 08:38:49 08:46:05 85° 106° (ESE) 08:53:17 435.675
CUBEBUG 2 28 May 08:47:18 08:51:55 70° 101° (E) 08:56:37 437.445
UWE-3 28 May 08:54:00 08:58:30 49° 99° (E) 09:03:01 435.000/436.395/437.385
CUTE-I 28 May 08:55:20 08:58:36 17° 299° (WNW) 09:01:53 437.470
Oscar 11 28 May 09:19:39 09:23:41 36° 97° (E) 09:27:41 .
CUTE 1.7 + AOD 2 28 May 09:28:13 09:31:24 21° 293° (WNW) 09:34:33 437.475
TIGRISAT 28 May 09:29:58 09:33:36 28° 69° (ENE) 09:37:18 435.000
M-CUBED/EXP-1 PRIME 28 May 09:30:10 09:33:02 18° 260° (W) 09:35:46 437.505
AAUSAT CUBESAT 2 28 May 09:31:59 09:36:03 57° 285° (WNW) 09:40:04 437.432
NO-84 28 May 09:34:14 09:38:12 33° 327° (NNW) 09:42:04 435.350 FM
PRISM 28 May 09:36:02 09:39:59 46° 72° (ENE) 09:43:56 437.425
DELFI C3 28 May 09:36:07 09:38:04 13° 91° (E) 09:40:00 145.870
XW-2A 28 May 09:40:43 09:41:59 12° 294° (WNW) 09:43:15 145.665 - 145.685
FO-29 28 May 09:46:16 09:51:14 49° 70° (ENE) 09:56:23 435.910
AO-73 28 May 09:48:09 09:52:44 84° 282° (WNW) 09:57:18 145.935
UNISAT 6 28 May 10:01:31 10:05:46 68° 75° (ENE) 10:10:06 437.425
ZACube-1 28 May 10:03:22 10:07:48 52° 287° (WNW) 10:12:16 437.345
SEEDS 28 May 10:16:09 10:16:50 10° 298° (WNW) 10:17:32 437.485
RS-15 28 May 10:19:03 10:31:00 53° 46° (NE) 10:42:21 29.354- 29.394
CUBEBUG 2 28 May 10:25:54 10:27:58 13° 297° (WNW) 10:30:03 437.445
HO-68 28 May 10:28:05 10:32:55 20° 304° (NW) 10:37:43 435.675
UWE-3 28 May 10:31:32 10:34:32 17° 295° (WNW) 10:37:34 435.000/436.395/437.385
EO-88 28 May 10:44:58 10:48:39 67° 101° (ESE) 10:52:18 145.990 - 145.960
NANOSAT C BR1 28 May 10:53:28 10:55:51 15° 64° (ENE) 10:58:14 145.865
Oscar 11 28 May 10:56:23 10:59:34 20° 293° (WNW) 11:02:44 .
POLYITAN 1 28 May 10:59:08 11:02:06 19° 66° (ENE) 11:05:05 437.675
DUCHIFAT 1 28 May 11:02:47 11:05:28 17° 65° (ENE) 11:08:10 145.980
TIGRISAT 28 May 11:06:45 11:10:15 25° 265° (W) 11:13:50 435.000
QB50P2 28 May 11:07:21 11:10:48 25° 68° (ENE) 11:14:16 145.880/145.840
DELFI C3 28 May 11:09:19 11:13:03 42° 287° (WNW) 11:16:44 145.870
PRISM 28 May 11:13:18 11:15:29 14° 268° (W) 11:17:39 437.425
NO-84 28 May 11:14:56 11:16:52 13° 347° (NNW) 11:18:45 435.350 FM
LO-87 28 May 11:22:29 11:25:20 22° 95° (E) 11:28:10 145.935 - 145.965
ESTCUBE 1 28 May 11:28:35 11:31:34 17° 92° (E) 11:34:32 437.505/2401.250
FO-29 28 May 11:33:15 11:36:45 18° 269° (W) 11:40:18 435.910
EO-79 28 May 11:43:01 11:47:07 58° 74° (ENE) 11:51:16 145.935-145.965
AIST 2D 28 May 11:46:19 11:49:46 55° 261° (W) 11:53:16 435.315
AO-85 28 May 12:03:48 12:06:21 16° 44° (NE) 12:08:59 145.980
Oscar 19 28 May 12:03:53 12:05:53 12° 59° (ENE) 12:07:55 437.125/150
YUBILEINY 28 May 12:04:27 12:13:07 55° 77° (ENE) 12:21:43 435.215
VELOX 1 28 May 12:16:37 12:18:50 14° 91° (E) 12:21:03 145.980
NANOSAT C BR1 28 May 12:27:08 12:31:09 47° 261° (W) 12:35:13 145.865
RS-15 28 May 12:32:03 12:43:28 51° 250° (WSW) 12:54:21 29.354- 29.394
POLYITAN 1 28 May 12:33:46 12:37:37 36° 262° (W) 12:41:31 437.675
DUCHIFAT 1 28 May 12:36:53 12:40:48 40° 261° (W) 12:44:45 145.980
QB50P2 28 May 12:42:57 12:46:30 26° 264° (W) 12:50:03 145.880/145.840
O/OREOS (USA 219) 28 May 12:44:05 12:47:24 20° 56° (NE) 12:50:42 437.305
BUGSAT 1 28 May 12:46:57 12:50:57 76° 75° (ENE) 12:54:58 437.445
NO-84 28 May 12:54:33 12:56:00 12° 9° (N) 12:57:25 435.350 FM
LO-87 28 May 12:55:57 12:58:40 21° 291° (WNW) 13:01:22 145.935 - 145.965
ESTCUBE 1 28 May 13:04:18 13:08:34 43° 288° (WNW) 13:12:48 437.505/2401.250
EO-79 28 May 13:21:56 13:23:14 11° 270° (W) 13:24:34 145.935-145.965
BEESAT 2 28 May 13:23:32 13:25:43 14° 42° (NE) 13:27:53 435.950
SPROUT 28 May 13:30:22 13:34:39 84° 284° (WNW) 13:38:56 437.525
Gurwin Techsat 1B 28 May 13:32:59 13:38:04 49° 71° (ENE) 13:43:11 435.225
BEESAT 3 28 May 13:38:04 13:41:54 41° 53° (NE) 13:45:41 437.485
Oscar 19 28 May 13:39:14 13:44:26 89° 253° (WSW) 13:49:40 437.125/150
AO-85 28 May 13:43:02 13:47:01 57° 242° (WSW) 13:51:15 145.980
VELOX 1 28 May 13:51:19 13:55:35 52° 287° (WNW) 13:59:50 145.980
50 SAT 28 May 13:54:14 13:57:39 77° 284° (WNW) 14:01:01 437.505
YUBILEINY 28 May 14:01:57 14:09:26 32° 276° (W) 14:16:55 435.215
UKube-1 28 May 14:08:22 14:12:36 55° 101° (E) 14:16:48 .
AO-7 28 May 14:10:51 14:17:45 31° 57° (ENE) 14:24:40 .
DX 1 28 May 14:20:12 14:24:32 73° 284° (WNW) 14:28:50 434.975-435.025
O/OREOS (USA 219) 28 May 14:22:45 14:27:00 42° 254° (WSW) 14:31:13 437.305
NO-84 28 May 14:31:20 14:34:44 28° 30° (NNE) 14:37:53 435.350 FM
ITAMSAT 1 28 May 14:45:56 14:50:31 33° 68° (ENE) 14:55:07 435.822/435.867
BEESAT 2 28 May 14:59:54 15:03:57 72° 241° (WSW) 15:07:57 435.950
Gurwin Techsat 1B 28 May 15:14:21 15:18:15 21° 267° (W) 15:22:10 435.225
BEESAT 3 28 May 15:16:32 15:19:09 17° 250° (WSW) 15:21:45 437.485
MOZHAYETS 4 28 May 15:29:14 15:32:41 20° 93° (E) 15:36:06
ITUPSAT 1 28 May 15:32:39 15:37:08 37° 98° (E) 15:41:35 437.325
UKube-1 28 May 15:45:56 15:48:09 14° 297° (WNW) 15:50:21 .
AO-7 28 May 16:01:47 16:09:58 64° 256° (WSW) 16:18:13 .
BEESAT 28 May 16:04:33 16:09:22 82° 103° (ESE) 16:14:09 436.000
NO-84 28 May 16:08:55 16:12:22 37° 230° (SW) 16:15:32 435.350 FM
CUBESAT XI-V 28 May 16:22:00 16:24:01 13° 90° (E) 16:26:01 437.345
ITAMSAT 1 28 May 16:25:30 16:29:57 29° 264° (W) 16:34:27 435.822/435.867
CUTE-I 28 May 16:58:35 17:01:18 14° 60° (ENE) 17:04:02 437.470
MOZHAYETS 4 28 May 17:05:38 17:09:58 39° 289° (WNW) 17:14:15
XW-2B 28 May 17:07:30 17:08:46 11° 64° (ENE) 17:10:02 145.730 - 145.750
ITUPSAT 1 28 May 17:10:56 17:14:44 24° 294° (WNW) 17:18:32 437.325
XW-2F 28 May 17:17:33 17:19:41 15° 66° (ENE) 17:21:49 145.980 - 146.000
XW-2C 28 May 17:19:59 17:22:24 16° 67° (ENE) 17:24:50 145.795 - 145.815
KAITUO 1B 28 May 17:21:43 17:23:34 13° 65° (ENE) 17:25:24 145.475/437.950
HO-68 28 May 17:24:52 17:27:18 12° 50° (NE) 17:29:45 435.675
DOVE 4 28 May 17:41:40 17:46:11 61° 75° (ENE) 17:50:28 437.250
KKS-1 28 May 17:42:42 17:47:09 75° 102° (ESE) 17:51:35 437.445
BEESAT 28 May 17:44:47 17:46:26 12° 300° (WNW) 17:48:05 436.000
CUBESAT XI-V 28 May 17:57:12 18:01:48 62° 286° (WNW) 18:06:21 437.345
LilacSat-2 28 May 17:59:07 18:02:50 50° 74° (ENE) 18:06:35 437.200
STARS 28 May 18:07:26 18:11:46 59° 101° (E) 18:16:06 437.465
XW-2D 28 May 18:30:40 18:34:26 65° 260° (W) 18:38:16 145.860 - 145.880
CUTE-I 28 May 18:35:22 18:40:40 78° 257° (WSW) 18:46:00 437.470
XW-2A 28 May 18:38:44 18:40:23 13° 67° (ENE) 18:42:03 145.665 - 145.685
XW-2B 28 May 18:38:45 18:42:28 52° 260° (W) 18:46:14 145.730 - 145.750
NUDT-PHONESAT 28 May 18:41:44 18:45:24 62° 259° (W) 18:49:09 437.300
CUTE 1.7 + AOD 2 28 May 18:44:22 18:47:46 24° 68° (ENE) 18:51:12 437.475
XW-2F 28 May 18:49:54 18:53:27 39° 262° (W) 18:57:05 145.980 - 146.000
XW-2C 28 May 18:52:49 18:56:18 34° 263° (W) 18:59:50 145.795 - 145.815
KAITUO 1B 28 May 18:53:34 18:57:10 43° 261° (W) 19:00:49 145.475/437.950
PCSat 28 May 18:54:53 19:00:13 64° 115° (ESE) 19:05:36 145.827
HO-68 28 May 19:06:33 19:13:35 61° 69° (ENE) 19:20:40 435.675
Tancredo 1 28 May 19:18:48 19:21:41 39° 138° (SE) 19:24:35 437.200
KKS-1 28 May 19:21:49 19:23:04 11° 299° (WNW) 19:24:20 437.445
DOVE 4 28 May 19:22:29 19:24:11 12° 269° (W) 19:25:50 437.250
ZACube-1 28 May 19:25:45 19:26:57 11° 62° (ENE) 19:28:09 437.345
SEEDS 28 May 19:28:28 19:32:31 45° 73° (ENE) 19:36:35 437.485
LilacSat-2 28 May 19:36:20 19:37:24 11° 270° (W) 19:38:28 437.200
CUBEBUG 2 28 May 19:45:06 19:49:08 51° 73° (ENE) 19:53:17 437.445
STARS 28 May 19:45:26 19:47:37 14° 297° (WNW) 19:49:48 437.465
UWE-3 28 May 19:50:47 19:54:36 35° 71° (ENE) 19:58:32 435.000/436.395/437.385
XW-2A 28 May 20:09:48 20:12:50 32° 263° (W) 20:15:55 145.665 - 145.685
ISS 28 May 20:12:08 20:15:26 89° 141° (SE) 20:18:44 437.550
Oscar 11 28 May 20:14:08 20:17:48 27° 69° (ENE) 20:21:28 .
STRAND 1 28 May 20:14:10 20:19:17 60° 101° (E) 20:24:21 437.568
CUTE 1.7 + AOD 2 28 May 20:19:42 20:23:27 29° 264° (W) 20:27:15 437.475
AAUSAT CUBESAT 2 28 May 20:21:01 20:25:12 86° 77° (ENE) 20:29:24 437.432
PCSat 28 May 20:39:59 20:44:05 21° 314° (NW) 20:48:11 145.827
AO-73 28 May 20:42:56 20:47:08 70° 75° (ENE) 20:51:28 145.935
Tancredo 1 28 May 20:54:52 20:57:30 25° 335° (NNW) 21:00:09 437.200
HO-68 28 May 20:56:03 21:01:43 25° 267° (W) 21:07:27 435.675
ZACube-1 28 May 20:58:23 21:02:35 70° 259° (W) 21:06:55 437.345
SEEDS 28 May 21:06:00 21:08:25 15° 268° (W) 21:10:51 437.485
M-CUBED/EXP-1 PRIME 28 May 21:08:05 21:10:39 21° 101° (ESE) 21:13:11 437.505
EO-88 28 May 21:22:35 21:25:40 26° 70° (ENE) 21:28:47 145.990 - 145.960
CUBEBUG 2 28 May 21:24:17 21:26:06 13° 270° (W) 21:27:57 437.445
UWE-3 28 May 21:28:13 21:31:11 19° 268° (W) 21:34:14 435.000/436.395/437.385
ISS 28 May 21:49:50 21:52:18 19° 341° (NNW) 21:54:45 437.550
Oscar 11 28 May 21:50:13 21:53:51 26° 265° (W) 21:57:31 .
DELFI C3 28 May 21:53:36 21:57:35 84° 258° (WSW) 22:01:36 145.870
UNISAT 6 28 May 21:54:22 21:57:11 16° 92° (E) 22:00:00 437.425
STRAND 1 28 May 21:54:37 21:57:57 18° 298° (WNW) 22:01:17 437.568
